{"data":{"norad_id":61743,"epoch":"2026-09-22T20:22:20.209728Z","epoch_age_seconds":97104,"freshness":"FRESH","line1":"1 61743U 24199J   26265.84884502  .00001036  00000+0  91596-4 0  9999","line2":"2 61743  97.3190  99.3380 0007607  91.5504 268.6591 14.98289284146618","mean_motion":14.98289284,"eccentricity":0.0007607,"inclination_deg":97.319,"raan_deg":99.338,"arg_perigee_deg":91.5504,"mean_anomaly_deg":268.6591,"bstar":9.1596e-5,"rev_number":14661,"period_min":96.10961083267,"perigee_km":566.89469715238,"apogee_km":577.4689121818,"semimajor_km":6950.3188046671,"source":"CELESTRAK","updated_at":"2026-09-23T09:00:21.024559Z"}}